Theta_e
299 299 299 298 298 298 297 297 296 296 296 295 295 295 294 294 294 293 293 293 292 292 292 291 291 291 290 290 289 289 289 288 287 287 286 286 286 285 285 284 284 283 283 283 282 282 282 281 281 281 281 281 280 280 280 280 280 280 280 280 280 281 281 281 281 281 281 280 280 280 280 280 281 281 281 281 281 281 281 281 281 281 282 282 282
298 298 299 299 298 298 297 297 296 296 295 295 295 295 294 294 294 294 293 293 292 292 291 291 291 290 290 289 289 289 288 288 287 287 286 286 285 285 285 284 284 284 283 283 282 282 282 281 281 281 281 281 280 280 280 280 280 280 280 280 280 280 280 281 281 281 280 280 280 280 280 280 281 281 281 281 281 281 282 282 282 282 282 282 281
299 298 298 299 299 298 298 297 297 296 295 295 295 295 294 294 294 293 293 293 293 292 291 290 290 290 290 289 289 288 288 288 287 287 286 286 286 285 285 284 284 284 283 283 283 282 282 282 281 281 281 281 280 280 279 279 279 279 280 280 280 280 280 280 280 280 280 280 280 280 280 281 281 281 280 281 281 281 282 282 282 282 282 281 281
301 300 297 298 299 298 298 298 297 296 296 295 295 295 294 294 294 293 293 293 292 292 291 290 290 289 289 289 288 288 288 287 287 287 286 286 286 285 285 285 284 284 283 283 282 282 282 281 281 281 281 281 280 280 279 279 279 279 279 279 279 279 280 280 280 280 280 280 280 280 280 280 281 281 280 281 281 282 282 282 282 281 281 281 281
301 301 298 297 298 298 298 297 297 296 295 295 295 294 294 294 293 293 293 293 292 292 291 290 290 289 289 289 288 288 287 287 287 286 286 286 286 285 285 285 284 284 283 283 282 282 282 281 281 281 281 280 280 280 279 279 279 279 279 279 279 279 279 279 280 280 280 279 280 280 280 280 281 280 279 280 281 281 281 281 281 281 280 280 280
300 299 298 297 297 298 297 297 296 295 295 295 294 294 294 294 293 293 293 292 292 291 291 291 290 289 289 289 288 288 287 287 287 286 286 286 286 285 285 285 284 284 283 283 283 282 282 281 281 281 280 280 280 280 279 279 279 279 279 279 279 279 279 279 279 279 279 279 279 280 280 281 281 279 279 280 280 280 280 280 280 280 280 280 280
300 298 296 296 297 297 297 296 295 295 295 294 294 294 294 294 293 293 292 292 292 291 291 291 290 290 289 289 288 288 287 287 287 287 286 286 285 285 285 285 284 284 284 283 283 283 282 282 281 281 280 280 280 279 279 279 278 278 278 279 279 279 279 279 279 279 279 279 279 279 279 280 280 279 279 279 280 280 280 280 280 280 280 279 279
300 300 297 295 296 297 296 295 295 294 294 294 294 294 294 294 293 293 292 292 292 292 291 291 290 290 290 289 288 288 288 287 287 287 287 286 286 285 285 284 284 284 284 283 283 283 282 282 281 281 280 280 280 279 279 279 278 278 278 278 278 278 278 279 279 279 278 278 279 279 279 279 279 279 279 279 279 279 278 279 279 279 279 279 279
299 299 297 295 296 297 296 294 294 294 294 294 294 294 293 293 293 293 292 292 292 292 291 291 291 290 290 289 289 288 288 288 287 287 287 286 286 285 285 284 284 284 283 283 283 282 282 282 281 280 280 280 280 279 279 279 278 278 278 278 278 278 278 278 278 278 278 278 278 278 279 278 278 278 278 278 278 278 278 278 278 278 278 278 278
298 296 296 296 296 296 295 294 294 294 294 293 293 293 293 293 293 292 292 292 292 292 292 291 291 290 290 289 289 289 288 288 287 287 286 286 286 285 285 284 284 284 283 283 283 282 282 281 281 280 280 280 279 279 279 279 278 278 278 278 278 278 278 278 278 278 278 278 278 278 278 278 277 278 278 277 278 278 277 278 277 277 277 277 278
299 296 295 296 296 295 294 294 294 293 293 293 293 293 293 292 292 291 291 291 291 291 291 291 291 291 290 290 289 289 289 288 287 287 287 286 286 285 285 285 284 284 283 283 283 282 282 281 280 280 280 280 279 279 279 278 278 278 278 278 278 277 277 278 278 278 278 278 278 278 278 277 277 277 277 277 277 277 277 277 277 277 277 277 277
300 298 296 294 294 294 294 293 293 292 292 292 292 292 291 290 290 290 289 290 290 290 291 291 291 290 290 290 289 289 289 288 287 287 287 286 286 285 285 284 284 284 284 283 283 282 282 281 280 280 280 279 279 279 279 278 278 278 278 277 277 277 277 277 277 277 277 278 278 278 278 277 277 277 277 277 277 277 277 277 277 277 277 277 277
298 298 295 292 292 293 293 292 292 291 291 291 291 290 289 289 288 288 288 289 289 289 289 289 290 290 290 290 289 289 289 288 288 287 287 287 286 286 285 285 284 284 284 283 283 283 282 281 281 280 279 279 279 279 279 278 278 278 277 277 277 277 277 277 277 277 277 277 277 277 277 277 277 277 277 277 278 277 277 277 277 277 277 276 277
297 296 294 292 292 292 292 292 291 290 290 290 289 289 288 288 288 288 288 288 288 288 288 288 289 289 288 288 289 289 289 288 288 287 287 287 286 286 286 285 284 284 284 283 283 283 282 281 281 280 280 279 279 278 278 278 278 277 277 277 277 277 277 277 277 277 277 277 277 277 277 277 277 277 277 277 277 277 276 276 276 276 276 276 276
295 294 293 292 292 292 291 291 290 290 290 289 289 288 287 287 287 287 287 287 286 286 286 287 287 287 287 287 287 288 288 288 288 288 287 287 287 286 286 285 285 284 284 283 283 283 282 282 281 281 280 279 279 278 278 277 277 277 277 277 277 277 276 276 276 276 277 277 277 277 277 277 277 276 276 276 276 276 276 276 276 276 276 276 276
294 294 293 291 292 291 290 290 289 289 289 288 288 287 287 286 286 286 286 285 285 285 285 285 285 285 286 286 287 288 288 288 288 288 287 287 287 286 286 285 285 284 284 283 283 282 282 281 281 281 280 280 279 278 278 277 277 277 277 276 276 276 276 276 276 276 276 276 276 276 276 276 276 276 276 276 276 276 276 276 276 275 276 276 276
293 293 292 291 291 290 290 289 289 289 288 287 287 286 286 286 285 285 284 284 284 283 283 283 284 284 285 285 285 286 287 287 287 287 287 286 286 286 285 285 285 284 284 284 283 283 282 281 281 281 281 280 279 278 278 277 277 276 276 276 276 276 276 276 276 276 276 276 276 276 276 276 276 276 276 275 275 276 276 276 276 275 275 275 276
293 293 291 290 290 290 289 288 288 288 287 287 286 286 285 285 284 284 283 283 282 282 282 283 283 283 283 283 284 285 285 286 286 286 286 285 285 285 285 285 285 284 284 284 283 283 282 281 281 281 281 280 279 278 278 277 277 276 276 276 276 276 276 276 276 276 276 276 276 276 275 275 275 275 275 275 275 275 275 275 275 275 275 275 275
293 293 291 289 289 289 288 288 288 287 286 286 285 285 284 283 283 282 282 281 281 281 281 281 281 281 282 282 283 284 284 284 284 285 285 285 285 285 284 284 284 284 284 284 283 282 281 281 281 280 280 280 279 278 277 277 276 276 276 276 276 276 275 275 275 275 275 275 275 275 275 275 275 275 275 275 274 274 275 275 275 275 275 275 274
293 293 290 288 288 288 287 287 287 286 285 285 284 283 283 282 281 281 280 280 280 280 280 279 279 280 281 281 281 281 281 282 282 282 283 283 284 284 284 284 284 284 284 283 282 282 281 281 280 280 279 279 278 278 277 276 276 276 275 275 275 275 275 275 275 275 275 275 275 275 275 275 274 274 274 274 274 274 274 274 274 274 274 274 274
293 292 289 287 287 287 287 286 286 285 284 283 282 282 282 281 280 279 279 279 279 279 278 278 279 279 279 278 278 278 279 279 280 280 281 281 282 282 282 282 282 281 281 281 280 280 280 280 280 279 279 278 278 277 277 276 276 275 275 275 275 275 275 275 275 275 275 275 274 274 274 274 274 274 274 274 274 274 274 274 274 274 274 274 274
292 290 288 287 287 287 286 286 285 284 283 282 281 281 280 279 279 278 278 278 277 277 277 278 277 276 276 276 277 277 277 278 278 279 280 280 280 280 280 280 280 280 280 279 279 279 279 279 279 279 278 278 277 277 276 276 275 275 275 275 275 275 275 274 274 274 274 274 274 274 274 274 274 274 274 274 274 273 273 273 273 274 274 274 274
291 288 287 286 286 286 286 284 283 282 281 280 280 279 278 278 277 277 277 276 276 276 277 276 275 274 274 275 276 276 276 277 278 278 279 279 279 278 278 279 279 279 279 278 278 278 278 278 278 278 277 277 277 276 276 275 275 275 275 275 275 274 274 274 274 274 274 274 274 274 274 274 274 274 273 273 273 273 273 273 273 273 273 273 273
289 287 286 286 286 286 285 283 282 281 280 279 278 278 277 277 276 275 275 275 275 276 275 274 273 273 274 274 275 275 276 277 277 277 277 277 277 276 277 278 278 278 278 278 278 277 277 277 277 277 277 276 276 275 275 275 275 275 275 274 274 274 274 274 274 274 274 274 273 273 273 273 273 273 273 273 273 273 273 273 273 273 273 273 273
288 286 286 286 285 284 283 281 280 279 278 278 277 277 276 275 274 274 274 275 275 274 273 272 272 273 273 274 275 275 276 276 275 274 274 274 273 273 274 275 276 276 277 277 277 276 276 276 276 276 276 275 275 275 275 274 274 274 274 274 274 274 274 274 274 273 273 273 273 273 273 273 273 273 273 273 273 273 273 273 273 273 273 273 273
287 286 285 285 284 282 281 279 278 277 277 277 276 275 274 273 273 274 274 274 273 272 271 271 272 273 273 274 275 274 273 272 272 271 271 271 270 270 271 271 272 273 274 274 275 275 275 275 275 275 275 275 275 274 274 274 274 274 274 274 274 274 274 273 273 273 273 273 273 273 272 273 273 273 273 273 273 273 273 273 273 273 273 273 272
286 285 284 283 282 281 279 278 277 276 276 276 275 274 273 272 273 274 273 272 270 270 270 271 272 273 273 273 273 271 270 270 270 269 269 268 268 268 268 268 269 270 271 272 273 274 274 274 274 274 274 274 274 274 274 274 274 274 274 274 273 273 273 273 273 273 272 272 272 272 272 272 272 273 273 273 273 273 273 272 272 272 272 272 272
285 284 282 281 280 279 277 276 276 275 274 274 274 273 272 272 273 273 271 270 269 269 270 271 272 272 271 270 269 268 268 267 267 267 266 266 266 266 266 267 269 270 271 271 272 273 274 273 273 273 273 273 273 273 274 273 273 273 273 273 273 273 273 273 272 272 272 272 272 272 272 272 272 272 272 273 273 272 272 272 272 272 272 272 272
283 282 281 279 278 277 276 275 274 274 274 273 272 271 271 272 272 270 269 268 268 269 270 271 270 269 268 267 267 266 266 265 265 265 265 265 265 265 266 268 269 268 268 268 269 270 272 273 273 273 273 273 273 273 273 273 273 273 273 273 273 272 272 272 272 272 272 272 271 271 271 271 271 272 272 272 272 272 272 272 272 272 272 272 272
282 280 279 277 276 275 275 274 273 273 273 272 271 271 271 271 270 269 268 268 268 269 270 268 267 266 266 265 265 265 264 263 263 263 263 264 264 264 265 266 266 266 266 266 268 269 271 272 273 273 272 272 273 273 273 273 273 273 273 272 272 272 272 272 272 271 271 271 271 271 271 271 271 271 271 272 272 272 272 272 272 272 272 272 272
280 278 277 276 275 274 274 273 272 272 272 271 270 270 270 269 268 267 267 267 268 268 267 266 265 265 264 264 264 263 263 262 262 262 263 263 263 263 263 263 263 264 265 266 268 270 271 271 271 272 272 272 272 272 273 273 273 273 273 272 272 272 272 271 271 271 271 271 270 270 270 270 270 270 271 271 272 273 273 273 272 272 272 272 272
278 277 275 275 274 273 273 272 271 271 271 270 269 269 268 267 267 266 266 267 268 267 265 264 264 263 263 263 262 262 262 261 261 261 262 262 261 262 262 262 263 264 264 266 268 269 270 270 270 271 271 272 272 272 272 273 273 273 273 273 272 271 271 271 271 271 271 270 270 270 270 270 270 270 270 271 271 272 273 273 273 273 273 272 272
277 276 274 274 273 273 272 271 271 270 270 269 268 267 267 266 266 265 266 267 266 265 263 263 263 262 262 262 261 261 261 261 261 261 261 261 261 261 262 262 262 263 264 265 267 268 268 268 269 270 271 272 272 272 272 273 273 273 273 273 272 272 271 271 271 270 270 270 269 269 269 269 269 269 270 270 270 271 272 272 273 274 273 273 273
276 275 273 273 272 271 271 270 270 269 269 268 267 266 266 265 265 265 265 266 265 263 262 262 262 262 261 261 261 260 260 260 260 260 260 260 260 261 261 262 262 263 264 265 265 266 267 268 269 271 271 271 271 272 272 272 273 273 273 273 273 272 271 271 270 270 270 270 269 269 269 269 269 269 269 269 269 270 270 271 272 273 273 274 274
275 273 272 271 271 270 270 269 269 269 268 267 266 265 264 264 264 264 265 265 264 262 261 261 261 261 260 260 260 259 259 259 259 259 260 260 260 260 261 261 262 263 263 264 265 266 267 269 270 271 271 271 271 271 272 272 272 272 273 273 273 273 272 271 270 270 269 269 269 269 269 269 269 269 269 269 269 269 269 270 270 271 272 273 274
273 272 271 270 270 269 269 268 268 268 267 266 265 264 263 263 263 264 264 264 262 261 261 260 260 260 260 259 259 259 259 259 259 259 259 260 260 260 261 261 262 262 263 264 265 266 268 269 270 270 270 270 270 271 271 272 272 272 272 272 273 273 272 271 270 269 269 269 269 269 268 268 268 268 268 269 270 270 269 269 270 270 270 272 273
272 271 270 269 269 268 268 268 267 267 266 266 264 263 263 262 263 263 263 263 261 261 260 260 259 259 259 259 258 258 258 258 259 259 259 259 260 260 261 261 262 263 263 264 265 267 268 269 270 270 270 270 270 270 271 271 271 272 272 272 272 272 271 270 270 269 269 269 268 268 268 268 268 268 268 269 270 271 270 269 269 269 270 271 272
271 269 269 268 268 267 267 267 266 266 265 265 263 262 262 262 262 262 262 261 260 260 259 259 259 259 258 258 258 258 258 258 258 258 259 259 260 260 261 261 262 263 263 264 266 267 269 269 269 269 269 269 269 269 270 270 271 271 272 272 272 272 271 270 269 269 269 268 268 268 268 268 268 268 268 269 270 271 271 270 270 270 271 271 272
270 269 268 267 267 267 266 266 265 265 265 264 263 262 261 261 262 262 261 260 260 259 259 259 258 258 258 258 257 258 258 258 258 258 259 259 260 260 261 262 262 263 264 265 267 268 268 269 269 269 269 269 269 269 269 270 270 271 271 271 272 271 271 270 269 269 269 268 268 268 269 269 269 269 269 270 270 271 272 272 271 271 271 272 272
269 268 267 267 266 266 266 265 264 264 264 263 262 261 261 261 261 261 260 260 259 259 258 258 258 257 257 257 257 257 257 258 258 258 259 260 260 261 261 262 263 264 265 266 267 267 268 268 268 268 268 268 268 268 268 268 269 270 270 271 271 271 271 270 270 269 269 269 268 269 269 269 270 270 270 271 271 272 273 273 272 271 272 272 272
268 267 267 266 265 265 265 264 264 263 262 262 261 261 260 260 260 260 260 259 258 258 258 258 257 257 257 257 257 257 257 258 258 259 259 260 261 261 262 263 263 264 266 266 267 267 267 267 267 267 267 267 267 267 267 267 268 269 270 270 270 271 270 270 270 269 269 269 269 269 269 269 270 271 272 272 272 272 273 274 273 272 272 273 273
267 267 266 265 265 265 264 264 263 262 261 261 260 260 260 260 260 259 259 258 258 258 257 257 257 257 257 257 257 257 257 258 258 259 260 260 261 262 262 263 264 265 266 266 266 266 266 266 267 267 267 266 266 266 266 266 267 268 269 269 270 270 270 270 269 269 269 269 269 269 269 269 270 271 272 272 273 273 274 274 274 274 274 274 274
267 266 265 265 264 264 264 263 262 261 261 260 260 259 259 259 259 259 258 258 257 257 257 257 256 256 256 256 257 257 257 258 259 259 260 261 261 262 263 264 265 265 265 265 266 266 266 266 266 266 266 266 266 266 265 265 266 267 268 268 269 270 270 270 269 269 269 269 269 269 269 269 270 271 271 272 273 274 275 275 276 275 275 275 275
266 265 264 264 264 263 263 262 262 261 260 259 259 259 259 259 259 258 258 257 257 257 256 256 256 256 256 256 256 257 258 258 259 260 260 261 261 262 263 263 264 264 265 265 265 266 265 265 265 265 265 265 265 265 265 265 265 266 267 268 269 269 270 271 270 269 269 269 268 269 269 269 270 271 272 273 273 274 275 275 276 276 276 276 276
266 265 264 263 263 263 262 262 261 260 260 259 259 259 259 258 258 258 257 257 257 256 256 256 256 256 256 256 257 257 258 259 259 260 260 261 261 262 262 262 263 264 265 265 265 265 265 265 265 265 265 265 265 265 265 265 265 266 266 267 268 269 270 271 271 270 269 269 269 269 269 270 271 272 273 274 274 274 275 276 276 276 277 276 276
265 264 263 263 262 262 261 261 260 260 259 259 258 258 258 258 258 257 257 256 256 256 256 256 255 255 256 256 257 257 258 259 260 260 260 261 261 261 261 262 263 264 264 265 265 265 265 265 265 265 265 265 265 265 265 265 265 266 266 267 268 269 270 271 271 271 270 269 270 270 270 271 272 273 274 275 275 275 276 276 276 277 277 277 277
264 263 263 262 262 261 261 260 260 259 259 258 258 258 258 258 257 257 256 256 256 256 255 255 255 255 256 256 257 257 258 259 259 260 260 260 261 261 261 262 263 264 264 265 265 265 265 265 265 265 265 265 265 265 265 266 266 267 267 267 268 268 269 270 271 271 271 270 271 271 271 272 273 274 275 275 275 276 276 276 276 276 276 276 276
263 263 262 262 261 261 260 259 259 259 258 258 258 258 258 257 257 256 256 256 255 255 255 255 255 255 255 256 257 258 259 259 259 260 260 260 260 261 261 262 263 264 264 265 266 266 265 265 265 265 265 265 265 265 266 267 268 268 268 268 268 268 269 270 271 272 272 272 272 272 273 273 274 274 274 274 274 275 274 274 274 275 275 275 275
263 262 262 261 261 260 259 259 258 258 258 258 258 258 257 257 256 256 256 255 255 255 255 255 255 255 255 256 257 258 258 259 259 259 260 260 260 261 262 263 263 264 265 266 267 267 267 266 266 265 265 265 265 266 267 268 269 270 270 270 269 269 269 270 271 271 272 272 272 273 273 273 273 273 273 273 273 273 272 272 273 273 273 273 273
262 262 261 261 260 260 259 258 258 258 258 258 257 257 257 257 256 256 255 255 255 255 254 255 255 255 255 256 257 258 258 259 259 259 260 260 260 261 262 263 263 264 265 267 268 268 268 268 268 267 267 266 266 267 268 269 270 271 272 271 271 270 270 270 271 272 272 272 272 272 272 272 272 271 271 271 271 271 271 271 271 271 271 271 271
262 261 261 260 260 259 259 258 258 257 257 257 257 257 257 256 256 256 255 255 255 254 254 254 254 255 255 256 257 257 258 258 259 259 260 260 260 260 261 262 263 264 265 266 268 268 269 269 269 269 269 268 268 268 269 270 271 272 272 272 272 272 271 272 272 272 272 271 271 270 270 270 271 270 270 270 270 270 270 270 270 270 270 270 270
Wind_Speed
8 12 11 11 10 9 8 8 9 9 10 10 12 12 12 14 16 17 18 18 18 19 19 19 20 21 22 23 25 26 26 25 26 26 26 26 27 27 28 29 29 29 29 30 30 30 30 30 30 30 29 28 28 28 27 27 26 26 24 24 24 24 25 26 26 24 22 20 21 23 25 26 26 25 25 24 22 21 19 18 17 16 17 17 16
7 10 11 11 9 8 8 7 7 9 10 11 12 12 13 16 17 19 20 20 19 18 18 18 19 20 21 23 24 25 25 25 25 26 25 25 25 26 27 28 28 29 29 30 30 31 31 31 32 32 31 30 29 29 28 27 27 26 25 25 24 24 24 24 22 19 16 13 12 13 17 21 21 17 18 19 19 20 18 17 17 16 16 16 15
7 9 12 12 10 9 10 8 7 9 11 11 13 14 15 16 18 21 22 23 22 20 18 17 18 18 20 21 22 23 24 24 26 27 27 27 28 28 29 28 28 29 30 31 32 32 32 33 33 33 32 31 30 30 29 28 29 28 27 26 26 25 25 25 23 20 17 14 10 7 6 9 8 6 8 11 13 14 14 14 14 14 15 15 15
7 7 9 13 12 11 11 10 8 9 11 13 14 15 16 17 20 22 22 22 22 20 19 18 18 18 19 19 20 21 22 24 25 26 26 27 28 28 28 29 29 30 31 32 32 33 34 34 34 34 33 32 31 31 30 30 30 30 29 28 26 24 24 25 24 23 22 15 7 3 2 3 4 3 5 7 9 9 11 12 12 13 13 14 15
7 6 7 11 12 11 12 11 10 12 14 14 15 17 17 18 20 20 20 22 20 18 19 20 20 20 21 21 21 21 22 23 24 24 25 26 27 27 27 28 28 30 31 32 33 34 34 35 35 35 34 33 32 32 32 31 30 30 30 29 28 26 25 24 24 24 24 22 15 7 2 1 3 3 5 7 8 9 11 12 12 12 12 13 14
7 7 7 10 11 11 11 11 12 15 15 14 16 18 17 18 19 18 20 21 19 18 19 20 20 20 21 22 23 23 23 24 26 26 25 26 27 27 28 28 29 30 31 32 33 34 35 36 35 36 35 34 34 33 33 31 31 31 30 30 30 29 27 24 24 25 24 26 27 22 16 10 6 4 3 3 6 9 12 12 12 12 11 11 13
7 7 8 11 12 11 11 13 15 16 15 15 17 17 18 20 19 18 21 21 20 21 21 21 20 19 20 21 22 23 24 27 29 29 28 27 26 27 27 27 28 30 31 32 34 35 37 37 37 37 36 35 34 33 32 32 32 31 30 30 30 29 27 25 26 25 22 25 29 30 28 24 18 11 5 3 5 8 11 13 14 14 13 13 15
7 6 7 10 13 13 11 15 17 18 17 17 18 18 20 21 21 21 22 22 23 23 23 22 22 21 21 20 20 22 24 28 30 31 31 30 29 28 27 26 26 27 30 32 33 35 37 38 38 37 36 36 34 34 34 33 32 31 30 29 30 29 29 29 28 25 22 23 26 27 28 27 24 21 16 10 4 4 8 13 16 16 17 16 14
7 6 8 10 14 14 12 17 19 19 18 19 20 21 23 23 23 23 23 25 26 26 25 23 22 23 23 21 21 21 23 26 28 29 31 32 32 31 30 28 26 26 27 29 31 33 36 37 38 37 37 36 35 35 36 35 33 32 31 30 31 31 31 30 30 28 26 25 24 23 24 24 23 23 22 18 11 7 7 7 10 12 13 15 15
6 8 10 12 14 15 16 18 21 20 20 22 22 23 24 23 23 24 26 28 29 28 27 25 24 24 25 24 23 23 24 25 26 27 29 31 32 33 32 30 28 27 26 27 29 30 33 36 37 37 37 36 35 35 35 35 35 34 33 33 32 32 32 31 31 31 30 28 26 23 22 20 16 15 17 18 14 11 8 6 8 8 7 11 15
6 7 11 15 16 18 19 20 20 20 22 23 22 23 24 26 28 30 32 33 32 32 30 28 27 27 27 26 25 26 26 26 26 27 28 29 31 32 32 32 30 28 27 27 27 28 30 33 36 38 38 37 36 36 36 36 36 35 35 34 33 33 33 32 33 33 31 30 29 27 25 23 18 13 15 18 14 9 8 6 9 12 12 13 14
6 6 9 14 16 17 18 18 18 20 23 23 23 25 28 31 33 35 36 36 35 34 32 31 30 30 31 29 28 28 28 27 27 28 28 28 30 32 32 32 32 30 28 27 26 27 28 30 33 36 37 38 38 38 38 37 36 35 34 34 34 34 34 33 33 33 32 31 30 30 29 28 26 23 21 21 19 15 11 6 7 11 11 13 14
7 6 7 10 11 12 14 16 18 21 22 24 26 27 30 33 34 35 36 36 35 35 35 35 33 32 33 32 32 32 30 30 30 31 30 30 31 32 32 32 33 32 30 29 27 27 27 28 29 33 36 38 40 40 39 39 37 36 35 35 34 34 34 34 34 35 33 33 32 31 30 29 29 28 25 23 22 21 16 8 8 11 8 9 13
6 6 5 7 9 12 13 15 18 21 23 24 25 27 30 32 34 34 34 34 36 37 37 37 34 34 35 36 37 36 34 33 33 34 34 34 33 33 34 34 34 33 32 31 28 27 27 26 27 30 34 37 39 39 39 39 38 37 36 35 35 35 34 34 35 35 34 33 33 31 30 30 31 29 27 26 23 20 17 11 7 9 9 7 10
5 5 5 7 9 11 13 16 19 21 21 21 23 26 29 31 32 32 33 36 38 38 38 37 36 37 37 38 40 39 36 33 35 37 37 37 36 36 36 35 35 34 33 32 30 28 28 27 26 28 31 34 37 38 38 38 37 37 37 36 36 35 33 33 34 34 34 34 34 32 31 31 31 30 29 28 26 23 21 18 11 6 6 6 6
4 4 3 5 8 10 13 17 19 20 20 21 24 28 30 32 33 33 34 37 38 38 38 38 38 38 38 39 40 38 35 34 36 37 38 39 38 37 36 36 36 35 34 33 31 30 28 27 27 27 29 32 36 37 38 38 37 37 37 36 36 35 33 33 33 33 34 34 33 33 32 32 32 30 29 29 28 27 25 23 18 11 6 4 4
2 1 2 5 9 13 16 19 22 22 21 24 29 32 34 34 34 35 36 37 37 38 39 39 38 38 38 38 38 36 35 35 36 38 39 38 36 34 35 37 37 36 35 35 34 32 30 28 28 29 29 32 35 36 37 37 37 36 37 36 37 35 33 33 32 32 33 32 32 32 32 33 32 30 30 29 28 27 27 25 23 18 12 6 4
1 3 5 10 14 16 19 23 24 23 24 29 33 35 34 33 33 35 36 37 39 40 38 37 37 38 38 38 38 37 36 36 36 37 36 34 33 34 35 36 37 37 37 38 37 34 31 29 30 31 31 33 35 36 36 37 37 37 37 37 36 35 32 32 32 31 31 30 30 31 31 32 32 30 30 30 28 27 27 26 25 22 18 12 6
3 5 6 10 14 16 20 24 24 24 28 32 34 35 34 34 35 35 36 38 39 37 36 37 38 38 37 37 37 36 36 36 36 36 35 35 35 36 36 37 38 38 39 40 39 34 31 30 31 32 33 34 35 36 36 36 36 36 36 35 35 33 32 32 31 30 30 29 29 30 30 31 31 30 30 30 29 28 27 26 25 23 22 19 14
5 5 6 10 15 19 22 23 23 27 30 33 35 35 34 35 36 37 38 38 36 35 37 39 39 36 36 37 37 37 37 36 36 36 36 35 36 36 36 36 37 38 39 38 36 31 29 30 30 31 32 33 34 35 35 34 34 34 34 34 33 32 31 31 30 29 29 28 28 29 30 30 29 29 30 29 29 29 28 27 26 25 23 22 20
6 5 7 11 17 22 22 22 25 29 31 34 35 34 33 35 36 37 37 36 35 38 39 38 35 36 39 41 41 41 40 38 37 36 35 34 33 32 31 32 31 31 30 28 26 25 26 28 29 30 31 32 33 34 34 33 33 33 33 33 32 30 30 29 28 29 29 28 28 29 30 30 29 28 29 29 28 28 28 28 27 26 25 24 23
6 6 9 14 20 22 20 21 26 30 32 35 34 32 34 36 36 36 36 35 38 40 38 35 36 40 42 42 41 40 39 37 36 34 32 31 30 31 32 34 34 33 31 28 27 27 27 27 29 30 31 32 33 34 34 33 32 32 32 31 30 29 29 28 27 28 28 28 28 29 30 29 28 28 28 29 29 28 27 28 28 27 26 26 25
6 8 12 17 21 20 20 24 28 30 32 33 32 33 34 35 36 37 37 38 39 37 34 36 41 43 42 40 39 38 38 36 33 31 30 31 31 34 36 36 35 35 34 32 30 28 27 28 28 29 30 31 32 33 34 33 32 32 31 30 30 29 28 28 28 29 29 28 28 28 29 28 27 26 27 27 28 27 27 27 28 28 27 26 25
7 9 15 19 20 19 22 25 28 30 31 32 32 33 34 34 36 38 39 39 36 34 36 41 45 44 40 38 37 37 36 31 28 31 32 32 35 37 37 35 34 35 35 33 30 28 27 27 27 28 30 31 32 32 33 33 32 32 31 30 29 29 29 29 29 29 29 28 28 28 29 28 27 27 27 26 26 26 27 27 28 28 27 26 25
7 10 15 17 17 20 22 25 28 30 30 31 32 33 34 36 38 38 38 36 33 36 41 44 44 41 38 37 35 33 31 29 32 36 35 36 39 41 40 38 36 35 34 32 29 27 26 27 27 28 29 30 31 31 32 32 31 31 30 30 30 30 30 29 29 29 29 28 28 28 29 28 28 28 27 26 25 25 25 25 26 27 27 26 24
9 12 13 14 17 20 23 26 28 30 30 32 33 34 36 39 39 36 33 32 36 41 42 41 39 36 35 34 32 33 37 37 38 39 39 40 44 45 44 43 40 38 38 37 34 30 27 27 28 28 29 30 31 31 32 31 30 30 29 29 30 30 29 29 29 29 29 28 28 28 28 27 27 28 28 27 26 25 25 24 23 24 24 24 23
10 11 12 14 17 20 24 27 29 30 32 32 32 34 37 40 37 32 30 35 41 42 40 37 34 32 32 34 35 40 44 42 40 41 43 44 45 45 44 45 44 42 42 42 39 33 29 28 29 30 30 31 32 31 31 30 29 29 29 29 29 29 29 29 29 29 29 28 28 28 28 27 27 27 27 28 27 25 25 24 24 23 21 21 21
10 11 12 14 15 19 25 28 29 32 33 31 31 34 37 35 31 31 35 40 41 39 36 33 31 32 34 36 38 40 41 40 43 45 44 43 44 44 44 44 42 39 38 38 37 34 32 31 31 31 31 32 32 31 30 29 29 28 28 28 29 29 28 28 28 28 28 28 28 28 28 27 26 25 25 26 27 27 26 25 24 24 23 21 21
12 12 13 12 14 19 25 26 28 32 31 30 32 36 35 32 30 33 38 40 39 36 32 30 32 35 37 37 38 39 39 42 44 44 43 43 43 43 42 40 37 37 39 41 40 39 38 36 34 32 31 31 32 31 30 28 28 28 28 28 29 28 28 27 26 26 26 26 27 27 27 27 26 25 24 23 24 26 26 27 26 25 24 23 23
12 12 12 13 18 22 23 24 28 30 29 30 33 34 32 31 32 35 37 38 35 31 29 33 38 39 38 38 39 39 41 43 42 40 41 41 40 40 39 38 38 41 43 42 41 39 37 35 33 31 30 31 31 31 30 28 28 29 29 29 29 28 27 26 25 25 25 25 26 26 26 26 26 26 24 22 23 25 25 27 27 26 25 25 23
11 13 12 15 20 22 22 23 27 28 27 30 32 31 31 32 33 35 36 35 30 28 33 39 41 39 39 39 40 41 42 43 41 39 38 38 40 41 40 41 42 42 42 42 40 36 33 32 32 32 32 32 32 30 29 29 30 30 29 29 29 29 27 27 26 25 24 24 24 25 25 25 25 26 25 24 26 27 26 26 26 25 26 27 26
13 13 13 16 18 20 21 24 27 28 28 30 32 32 33 35 35 36 35 31 28 32 39 42 40 38 39 39 41 43 43 43 41 39 38 40 43 44 43 43 43 42 42 42 39 35 33 33 35 35 33 32 31 30 29 29 30 30 28 28 29 30 29 27 27 26 25 24 23 23 23 23 25 26 26 26 26 27 26 26 25 24 24 26 27
13 13 14 16 18 20 22 25 28 29 29 30 32 33 35 37 38 37 34 29 30 37 41 40 38 38 38 40 42 42 43 43 42 42 43 45 45 44 43 43 42 41 39 38 37 37 37 37 37 35 32 31 30 29 28 29 29 28 28 27 28 29 30 29 28 27 26 24 23 22 21 22 24 25 25 26 27 27 26 24 23 24 24 25 26
13 13 16 18 20 23 25 27 29 30 30 32 33 34 36 37 37 36 32 29 32 39 42 40 39 39 40 41 41 42 44 45 44 45 46 45 44 43 43 42 41 39 37 37 39 40 41 41 39 34 30 29 29 28 27 28 27 26 27 27 25 26 28 29 29 28 27 26 25 24 23 22 22 23 24 25 27 27 27 26 24 24 23 24 25
13 14 18 22 25 26 28 30 31 31 32 33 33 36 38 37 36 35 31 29 34 40 40 39 40 41 41 41 43 45 46 45 45 45 45 44 43 43 43 43 41 38 37 39 39 40 41 39 33 29 28 28 28 26 25 27 26 25 26 26 22 21 24 27 28 28 28 27 27 26 26 25 24 24 23 24 25 26 26 27 28 28 25 22 23
14 17 21 25 27 28 29 31 31 32 32 31 32 37 39 37 35 33 30 31 35 39 39 39 40 40 41 43 45 47 48 47 46 44 43 43 43 43 43 42 40 39 38 38 38 39 39 34 29 28 28 27 26 24 24 25 24 23 24 23 20 18 21 25 26 27 27 27 26 26 26 26 26 27 25 23 23 24 24 25 27 30 28 24 24
17 20 23 25 27 27 27 29 30 31 29 28 32 37 37 35 34 32 31 33 36 37 38 39 39 40 44 46 46 46 47 47 45 44 43 44 43 42 42 40 39 38 38 38 38 37 35 31 29 28 26 24 24 23 22 22 22 22 22 22 19 16 19 23 25 26 26 27 27 27 28 27 27 28 26 24 23 24 25 26 25 25 26 26 25
19 22 23 25 27 27 27 28 29 30 28 28 32 35 34 32 32 31 32 34 36 38 40 40 40 42 45 46 45 45 45 45 44 44 44 44 44 42 41 40 39 37 38 39 36 34 32 30 27 25 23 21 22 22 20 20 21 21 21 21 18 15 16 20 23 24 25 25 26 27 27 28 29 28 27 25 25 25 27 28 26 22 23 26 26
19 23 23 25 28 28 27 29 30 30 30 30 33 33 32 31 30 30 32 34 36 40 41 41 42 44 44 44 44 44 43 43 44 44 44 44 43 42 42 41 40 38 38 36 32 31 31 27 23 22 20 18 19 20 20 19 19 20 20 19 18 16 15 17 19 21 23 24 26 26 26 27 28 28 26 25 25 26 27 29 28 22 21 24 26
21 24 24 26 27 27 28 30 31 32 32 32 33 32 31 30 30 30 31 33 38 42 43 43 44 44 43 43 43 43 42 42 43 43 42 42 42 42 42 41 41 39 35 30 28 29 29 25 21 19 17 17 17 19 20 19 18 19 20 19 18 17 17 16 16 18 19 21 23 25 25 25 26 27 27 26 25 26 26 26 28 25 23 24 25
23 26 27 28 28 26 27 29 30 33 34 34 34 33 32 32 31 30 32 36 40 43 43 44 45 44 44 44 43 42 42 42 41 41 40 41 42 42 42 41 41 37 29 26 28 28 25 23 20 16 16 17 17 18 19 19 18 19 19 19 19 18 17 17 17 17 19 20 21 23 24 24 24 25 26 25 25 26 25 25 28 29 27 24 22
24 26 28 29 28 27 27 28 30 32 33 34 35 33 32 33 31 32 36 40 42 42 43 44 45 44 44 44 43 43 42 41 40 39 39 40 42 42 41 39 36 31 26 27 29 25 22 22 20 17 16 17 17 18 20 20 19 20 20 20 20 19 17 17 18 18 19 20 22 23 24 25 25 25 25 25 25 25 25 26 29 31 28 23 22
24 26 28 29 27 27 28 30 31 33 33 34 34 33 33 32 32 35 40 42 42 42 43 44 44 44 44 44 43 43 42 40 39 38 39 40 41 40 38 35 32 30 28 28 26 22 20 20 19 18 18 19 19 20 21 21 21 21 21 21 21 20 19 19 20 21 21 22 23 24 24 24 24 25 26 25 25 25 26 26 27 29 28 25 23
23 26 28 28 27 27 28 30 31 33 34 34 34 34 33 33 34 38 42 42 41 42 43 44 44 43 43 43 42 41 40 39 38 38 39 39 39 37 35 33 33 31 27 24 22 21 19 18 17 18 19 19 20 21 22 22 22 21 21 21 21 21 20 20 21 22 24 24 23 23 23 23 24 24 24 24 24 25 26 25 25 26 28 27 24
24 27 29 28 27 28 29 31 32 33 34 34 34 33 33 35 37 41 41 41 42 43 44 43 43 43 42 41 40 39 38 37 37 38 39 38 36 34 34 34 33 30 26 22 21 19 18 16 16 17 18 20 20 20 21 22 20 20 20 20 20 20 20 20 20 23 25 25 23 22 22 22 22 22 22 21 22 23 25 26 25 24 25 28 27
25 28 29 29 28 28 29 31 34 34 34 34 33 32 32 35 39 41 40 40 42 43 44 43 43 42 41 39 38 37 36 37 38 38 37 36 34 33 33 33 31 28 25 23 21 18 16 16 16 16 18 20 20 20 20 21 20 19 18 18 17 17 18 18 19 23 24 22 20 20 21 21 22 23 22 21 21 22 23 24 24 22 22 25 25
25 27 29 29 28 28 30 32 34 35 34 34 34 32 33 36 38 39 40 40 41 42 43 43 42 40 38 37 36 35 35 37 40 39 36 35 36 35 33 31 29 27 25 24 21 18 16 15 15 16 18 18 19 20 20 19 18 18 17 16 14 14 15 15 17 21 22 21 20 19 19 20 17 14 11 10 10 11 10 10 11 12 13 16 17
25 27 28 28 27 28 29 31 32 34 35 34 34 34 35 36 37 38 39 40 41 41 41 41 40 37 36 35 35 34 35 38 40 39 36 34 35 36 33 30 29 27 26 25 23 20 18 17 17 17 17 17 18 19 18 17 16 15 15 13 11 11 13 12 12 14 15 16 17 15 13 10 7 8 11 11 11 11 10 10 11 11 11 12 11
25 26 27 27 27 28 29 30 32 33 34 34 34 35 36 36 37 38 38 39 41 42 40 39 38 36 35 35 34 34 35 37 38 39 39 35 33 32 31 30 30 28 27 28 27 23 21 21 20 18 16 15 17 18 18 19 18 16 13 11 10 10 11 11 11 12 12 12 10 8 7 8 10 12 13 12 11 11 10 10 10 9 9 9 9
25 26 26 26 27 28 29 30 32 33 33 34 35 36 37 36 36 37 38 39 41 40 38 36 36 35 35 34 34 34 36 37 36 37 40 40 38 35 31 29 30 30 30 30 29 25 19 17 19 19 16 15 18 21 21 22 19 12 8 8 6 6 9 10 9 9 9 8 8 9 9 10 11 11 12 12 11 10 10 9 7 6 5 5 5
26 26 27 28 29 29 30 31 32 32 33 34 35 36 37 37 37 37 38 39 40 37 35 34 35 35 34 33 33 34 35 36 35 35 35 36 38 40 39 36 34 33 32 31 30 30 27 19 11 13 16 17 17 17 20 22 17 9 6 8 7 8 9 9 8 7 10 11 11 11 11 11 12 11 10 10 9 9 9 8 6 5 3 2 2
Wind_Direction
130 121 124 126 116 106 99 93 90 83 73 61 49 41 29 18 10 4 359 352 347 342 335 328 320 314 308 303 300 301 300 298 298 299 298 297 299 297 292 290 288 285 282 280 278 277 277 277 277 277 276 273 270 270 270 269 268 267 266 263 262 264 263 262 263 266 271 277 281 283 285 285 284 281 277 275 274 274 273 269 268 267 264 270 285
96 86 95 112 107 95 95 97 94 86 84 71 54 43 26 16 11 3 356 349 345 343 339 332 326 321 316 310 307 304 302 302 303 304 302 300 299 297 294 292 287 285 284 281 278 277 276 276 276 276 275 272 270 270 268 266 266 265 264 261 259 262 263 263 262 259 260 268 281 292 295 295 291 282 273 268 267 267 263 260 259 256 259 270 280
71 65 71 81 80 85 84 76 87 95 87 65 47 39 25 18 12 3 356 348 342 339 339 336 329 323 317 314 310 305 303 304 304 303 299 296 295 294 293 290 286 285 284 281 278 275 274 274 274 275 273 271 269 267 264 262 262 261 259 257 258 260 261 261 257 251 253 264 280 285 291 309 308 291 276 264 261 259 249 244 247 250 261 270 271
65 54 54 59 59 70 66 55 86 97 72 55 47 38 28 20 10 0 355 349 341 334 336 337 331 324 317 313 310 304 303 303 302 302 300 297 295 293 291 290 287 285 284 281 276 274 272 271 272 272 271 271 268 265 262 260 259 258 257 255 254 256 257 257 254 250 251 252 260 270 282 314 289 291 315 281 257 238 228 233 240 250 262 264 264
71 55 45 48 48 56 53 52 82 81 63 56 45 36 28 16 4 356 350 347 343 335 335 335 331 328 324 318 313 307 305 306 305 308 312 309 305 302 299 295 291 288 286 282 278 275 273 272 271 270 270 269 267 264 262 260 257 256 256 254 250 249 252 257 254 250 247 241 234 234 258 268 249 297 336 297 262 235 231 237 240 248 258 262 266
66 55 48 45 43 47 50 63 83 73 60 50 36 31 22 5 357 352 345 344 342 335 331 329 327 328 325 319 314 308 304 304 305 308 312 314 312 310 307 303 298 292 289 285 282 279 276 275 273 270 269 266 265 263 261 259 257 255 254 252 251 249 250 255 255 251 248 243 238 238 241 240 251 309 342 310 288 269 253 244 246 252 254 259 266
46 37 38 42 41 38 50 75 80 64 50 39 29 19 3 353 349 344 339 337 335 330 326 322 319 319 319 315 310 304 298 298 303 303 303 306 308 308 307 306 303 298 293 289 285 281 278 275 273 270 268 265 263 261 259 258 256 255 254 252 251 250 248 249 252 252 249 246 242 241 245 247 251 258 253 259 303 289 265 255 256 253 252 262 269
49 35 25 36 36 30 58 82 68 51 40 28 16 2 352 348 344 338 334 332 331 327 321 315 311 310 312 310 304 300 297 297 301 301 299 299 299 301 302 302 302 299 296 291 286 281 276 273 270 267 265 265 262 259 259 259 257 256 256 252 251 250 246 245 249 250 245 245 245 242 245 248 248 247 243 241 258 289 279 273 269 264 264 268 270
53 40 25 33 30 29 66 76 51 37 29 14 4 356 351 347 341 335 332 331 330 326 316 308 304 303 303 301 297 297 298 298 299 299 298 296 294 295 296 295 297 297 296 293 287 281 276 272 269 265 263 263 260 258 259 258 257 257 256 253 251 249 247 245 247 247 244 245 246 243 246 248 247 247 244 238 235 246 265 275 276 278 274 263 261
43 37 31 26 25 38 61 54 33 25 16 5 360 355 350 345 339 335 333 332 330 325 316 305 300 298 297 295 292 293 296 296 295 294 294 293 290 289 290 289 291 292 294 295 290 284 278 272 268 265 265 263 259 257 257 256 255 255 255 255 252 250 248 246 245 246 246 246 245 243 244 244 243 246 238 230 229 237 243 254 266 274 274 267 268
34 29 25 22 32 50 51 35 23 18 10 4 359 354 352 350 346 341 337 334 331 328 321 311 303 298 296 293 289 289 292 290 287 285 287 288 285 284 286 285 286 288 292 293 292 290 282 273 267 265 264 262 259 258 257 256 255 254 254 254 253 251 249 247 247 247 246 246 244 241 240 239 235 235 229 222 220 225 236 248 256 259 264 266 269
34 26 21 26 42 50 38 25 20 14 9 6 2 358 357 354 349 343 338 335 333 331 327 321 312 304 299 292 287 287 287 284 281 280 281 282 281 282 284 283 283 285 287 288 290 291 286 277 270 265 261 259 258 258 257 256 255 254 253 252 252 251 249 248 247 246 245 244 243 240 240 241 238 238 234 227 223 224 229 236 244 251 260 260 261
29 27 26 32 42 37 24 20 17 12 10 7 4 1 357 353 348 341 336 335 335 333 330 326 320 316 310 301 293 288 286 284 281 280 280 280 280 280 280 280 280 280 282 282 284 288 286 280 275 269 264 260 258 256 255 254 253 253 252 251 251 250 249 247 246 246 245 243 243 242 241 241 240 239 238 235 231 229 229 237 242 240 246 262 266
27 28 35 37 31 21 16 17 15 10 7 4 2 0 356 352 347 340 337 337 337 335 331 327 324 325 323 315 306 295 287 287 287 285 284 282 281 280 280 279 277 276 278 278 280 284 282 279 279 276 270 264 258 255 254 253 252 250 250 250 250 250 249 247 246 247 246 245 244 243 242 242 242 241 239 238 236 231 228 228 234 240 242 257 270
31 33 35 24 12 12 17 17 12 5 2 2 1 359 356 351 346 342 339 338 336 334 332 329 326 326 324 321 315 302 292 293 295 293 289 286 283 281 280 279 276 275 277 277 277 278 277 276 278 279 276 269 262 256 254 252 251 249 248 249 249 250 249 248 247 247 247 246 244 243 243 244 244 243 240 238 238 237 237 236 233 238 253 255 263
37 40 21 358 1 16 21 14 4 359 359 1 2 359 354 348 344 341 338 334 332 331 330 327 324 323 323 323 319 309 301 302 303 300 296 290 284 281 283 284 281 278 278 277 275 274 273 272 272 276 279 275 266 258 254 252 250 248 247 247 247 248 247 246 247 246 246 246 245 244 243 244 245 244 241 240 240 241 244 245 240 228 234 253 258
45 25 322 347 10 17 16 7 358 356 1 3 1 356 349 345 342 338 335 332 331 330 328 325 324 324 323 323 321 316 312 311 311 308 303 295 289 289 293 291 285 281 279 278 276 272 269 267 268 271 274 274 268 261 256 252 250 248 247 246 246 246 245 245 245 245 245 245 245 244 243 244 245 244 243 241 241 242 243 245 243 233 223 224 249
327 342 353 8 14 12 7 360 355 359 5 2 356 349 344 342 339 337 335 333 330 328 327 327 328 327 324 322 321 318 317 316 316 314 309 303 301 302 301 295 290 286 283 281 276 270 267 265 266 268 269 269 266 261 256 253 250 248 247 246 246 245 243 243 243 243 244 244 245 244 243 244 244 243 243 242 240 241 241 240 242 239 231 222 217
336 350 4 10 10 7 0 356 358 5 2 355 349 344 341 340 339 338 335 332 330 329 331 331 330 326 323 322 322 322 322 321 320 318 315 311 309 307 303 299 295 291 287 282 274 267 265 265 265 267 268 267 264 260 256 252 249 247 246 246 245 243 241 241 242 242 243 243 243 244 243 243 243 242 243 243 240 239 239 240 242 241 237 231 221
347 1 7 7 7 1 357 359 4 3 355 349 346 342 340 340 339 338 336 334 333 334 334 331 328 327 327 327 328 328 327 325 323 322 319 316 314 313 310 306 301 296 290 281 272 267 268 269 270 270 269 267 264 260 256 253 249 247 245 245 243 241 239 240 240 241 241 241 242 243 243 243 242 242 242 242 241 239 239 240 242 242 239 236 229
359 6 1 6 4 357 358 5 3 356 350 347 344 341 340 340 339 338 338 337 336 335 333 330 331 332 331 330 328 327 326 324 323 322 321 320 321 322 322 321 318 314 307 296 287 285 283 280 278 275 271 269 266 262 259 254 250 247 246 244 242 239 238 238 239 240 240 240 241 243 244 244 242 241 241 242 241 239 239 239 241 242 239 236 231
2 0 1 5 360 355 359 4 358 351 348 344 342 341 341 340 340 339 338 337 334 332 331 332 334 333 330 327 326 326 326 324 322 323 325 327 328 329 329 327 326 323 320 315 308 303 297 290 283 278 274 271 268 265 261 256 251 249 246 243 240 238 237 237 238 240 240 240 241 243 244 244 242 241 241 241 241 239 236 236 237 238 237 234 230
358 2 6 1 355 355 1 359 353 348 345 342 341 341 341 341 341 339 337 335 334 332 333 335 333 330 327 326 325 326 325 322 324 329 331 331 329 328 326 323 320 317 314 310 307 303 299 294 286 280 277 275 271 266 262 257 253 250 247 243 240 237 236 236 237 239 240 240 240 242 243 242 241 241 241 240 240 238 235 234 235 235 235 234 231
356 6 3 356 355 0 360 354 349 345 342 341 341 341 341 341 341 339 336 334 335 336 336 334 331 328 327 327 326 325 323 325 334 338 335 332 330 328 325 323 320 316 311 305 301 301 300 295 289 284 281 277 273 268 264 259 254 250 246 243 240 238 237 236 237 239 240 240 240 240 242 242 241 242 243 241 239 237 234 232 232 233 233 234 233
359 5 357 355 1 0 355 350 346 343 341 341 341 342 343 342 341 338 334 335 338 338 335 332 330 328 328 328 326 326 329 336 341 338 333 330 328 325 323 321 320 319 316 310 306 304 303 298 293 288 284 280 276 271 267 261 255 250 245 243 240 238 237 236 237 239 239 239 240 240 241 241 241 241 242 241 238 235 233 230 230 231 231 232 233
2 0 355 357 359 354 350 348 345 343 343 343 343 343 343 340 337 335 335 338 339 336 333 332 330 329 330 330 332 335 336 336 334 331 327 325 323 321 318 315 313 313 313 311 309 306 304 301 297 292 287 284 280 275 269 263 256 249 244 241 239 238 236 236 237 238 239 239 239 240 241 240 239 239 239 239 238 235 232 230 228 228 228 228 228
357 357 354 355 353 349 349 348 346 345 344 342 343 344 341 337 335 337 341 341 337 335 333 332 331 333 333 334 336 336 334 332 330 328 325 323 322 321 318 315 311 307 306 306 303 298 297 299 297 295 291 287 283 277 269 262 255 249 243 239 237 235 235 236 237 238 239 239 240 240 240 239 239 239 238 238 238 235 233 232 231 229 227 224 224
354 356 355 353 350 348 348 347 347 345 341 341 343 342 339 336 335 340 341 339 336 334 333 333 335 337 335 331 331 331 330 329 328 326 324 324 324 322 320 318 314 311 311 310 305 299 297 297 295 293 291 288 282 275 267 260 253 247 241 237 234 233 233 234 236 238 239 240 241 240 239 239 238 239 240 239 238 237 234 232 232 231 229 227 227
353 353 353 354 350 348 347 347 347 343 340 343 344 341 339 338 339 340 338 336 335 333 334 337 338 335 332 329 329 328 328 327 326 325 324 324 324 323 322 320 318 318 317 313 308 302 297 293 290 288 288 286 280 272 264 257 251 244 239 235 232 231 232 233 236 238 239 240 240 239 239 239 239 240 242 243 243 241 237 233 232 230 227 227 228
351 351 353 354 350 347 347 347 346 342 342 345 343 340 340 339 337 337 336 335 334 334 337 339 335 330 329 328 328 327 327 328 327 326 325 325 326 325 323 321 320 318 316 312 307 301 295 291 289 287 287 285 278 269 262 256 250 242 236 233 231 230 231 233 235 238 239 240 240 240 240 241 242 243 245 245 245 244 239 235 234 231 226 222 222
352 354 353 351 348 347 347 347 344 341 343 344 341 339 338 336 335 335 334 332 332 336 339 336 331 329 328 328 328 327 327 328 327 326 325 325 326 324 321 319 318 316 315 312 307 301 299 300 298 292 288 283 276 268 260 255 252 245 235 229 229 230 230 232 234 236 238 239 239 241 243 244 245 245 245 246 246 245 242 238 235 231 228 224 223
354 353 350 348 347 347 346 344 342 341 343 343 341 339 337 335 334 334 332 331 335 339 337 333 330 329 329 329 328 328 328 328 328 326 325 324 323 321 320 319 318 316 315 312 307 302 301 303 299 292 285 281 275 267 259 256 255 251 241 231 228 228 229 230 232 233 235 237 238 241 243 246 246 246 246 245 245 247 246 242 237 231 227 226 225
349 348 349 347 347 346 343 342 341 340 341 342 341 339 336 334 334 333 331 331 336 338 335 332 331 330 329 329 328 328 327 327 326 325 323 322 321 320 319 318 317 315 313 311 309 308 305 302 297 290 283 280 275 266 260 258 256 254 250 241 230 227 227 228 229 229 230 231 233 236 240 244 246 247 246 245 244 246 248 246 243 237 230 227 225
345 349 352 349 345 342 341 341 340 339 339 340 340 338 335 333 333 332 331 332 335 336 334 332 331 330 329 329 328 327 326 324 324 324 323 322 321 319 318 318 316 314 311 309 309 308 305 300 295 289 284 280 273 264 260 259 256 254 253 249 240 231 227 227 227 226 226 226 226 229 234 239 243 244 243 244 244 245 246 245 246 245 239 231 226
348 353 353 351 347 342 340 340 339 338 337 337 338 338 336 334 334 333 331 332 334 334 333 332 330 330 330 329 327 326 325 324 323 323 323 321 320 318 318 317 315 313 310 309 308 307 304 300 295 292 288 281 271 262 258 258 257 255 254 254 252 243 232 227 227 225 224 224 224 226 231 235 240 243 242 242 242 241 241 242 242 244 245 240 231
356 357 352 349 345 340 338 337 336 335 335 335 337 338 336 333 334 334 331 333 334 333 332 331 330 329 329 328 326 325 324 323 323 323 322 321 319 317 317 316 314 313 311 309 308 307 305 302 300 298 290 278 267 262 260 260 259 258 257 258 260 254 237 227 224 222 222 223 224 226 230 235 239 241 242 241 239 235 233 235 236 237 240 241 235
359 357 350 345 340 336 335 334 334 333 333 334 337 338 336 333 334 334 333 334 334 332 331 331 329 327 327 327 326 325 323 323 323 322 321 320 318 317 316 315 313 311 310 309 306 304 303 302 301 297 286 272 265 263 263 264 262 260 259 260 261 252 234 224 223 221 221 222 225 227 230 234 237 239 240 241 240 235 228 227 230 231 231 234 234
357 353 346 343 339 336 335 336 336 335 334 335 338 338 336 333 332 334 334 334 333 332 331 330 328 327 327 326 326 325 323 322 322 321 320 319 317 316 315 314 312 308 307 306 304 303 304 302 298 293 282 270 265 264 263 266 266 263 261 261 258 245 226 220 222 224 223 223 226 229 231 234 237 239 239 239 240 237 228 221 222 225 223 225 227
354 348 343 342 339 336 337 339 340 339 336 337 338 338 336 333 332 333 333 333 332 331 330 328 326 326 326 326 325 324 323 322 320 320 319 318 317 316 315 314 311 308 305 304 305 308 308 303 297 289 280 270 266 267 267 268 269 268 265 265 262 250 232 219 216 220 224 226 228 230 230 235 239 239 239 239 238 238 231 220 215 217 220 222 222
349 345 343 342 341 340 340 340 341 340 338 338 338 337 335 332 331 332 333 333 332 330 328 327 326 326 326 326 326 324 323 322 320 320 319 319 317 316 315 314 312 309 305 304 310 314 311 305 297 286 279 274 271 269 270 272 273 272 269 267 265 255 241 230 220 219 222 224 228 230 232 239 243 241 238 238 237 237 234 222 212 211 217 221 220
345 343 344 343 341 342 341 339 340 340 339 340 339 337 334 332 331 332 333 332 331 329 328 328 327 327 327 327 327 326 324 323 322 321 320 320 320 319 317 315 312 307 305 311 316 314 310 307 299 287 279 278 274 272 274 274 276 276 272 269 265 257 245 236 230 228 228 229 233 235 237 241 244 242 239 237 234 233 233 224 215 216 222 222 217
344 344 345 343 340 340 339 338 340 340 340 340 339 336 334 333 332 332 333 332 331 330 329 329 328 329 329 329 329 328 327 326 325 324 323 322 323 322 319 317 314 312 315 319 316 311 309 308 302 292 286 281 278 277 277 276 277 277 274 271 266 259 249 236 228 227 230 233 236 239 241 242 242 242 243 241 236 233 230 225 221 221 223 220 216
343 343 344 343 339 338 338 337 338 340 340 341 339 335 333 332 332 332 333 333 332 331 330 330 329 330 330 330 329 329 329 327 326 327 326 325 325 324 323 323 323 323 322 319 315 311 310 306 302 297 292 287 285 283 280 278 278 277 275 271 266 260 252 238 228 227 231 235 238 239 240 242 242 242 244 244 242 237 233 230 226 221 217 214 213
341 342 343 343 339 337 336 336 337 339 340 341 340 336 332 332 332 333 334 333 332 332 331 330 330 331 330 330 330 330 329 329 328 329 330 328 326 327 328 328 327 323 319 316 316 314 310 305 302 300 296 294 291 289 287 284 279 277 276 273 266 261 254 240 227 227 234 236 237 238 239 242 244 244 243 242 239 238 236 234 231 225 217 210 208
339 341 343 342 339 337 336 335 337 339 340 341 340 336 332 331 333 334 335 334 333 332 331 331 331 331 331 331 330 330 330 330 331 332 331 329 328 330 330 328 325 321 318 315 314 313 310 307 304 300 299 300 298 295 294 292 287 280 274 271 266 260 255 243 226 227 236 238 236 239 241 241 243 245 245 241 236 234 235 233 233 233 222 209 204
339 342 342 341 339 338 337 336 336 338 339 339 339 337 332 331 333 335 335 335 334 333 332 331 331 332 332 331 330 330 331 332 333 333 333 331 331 330 329 326 324 321 318 315 312 310 309 308 306 303 301 302 303 301 298 295 291 285 277 273 268 258 252 244 228 227 237 239 236 238 241 244 250 253 250 245 237 233 234 233 233 236 226 210 203
340 341 340 340 339 338 338 336 335 336 338 337 337 336 334 333 334 335 336 335 334 333 332 331 332 332 332 332 331 330 331 333 333 334 333 333 334 332 328 325 323 321 319 316 313 310 306 302 300 301 304 306 304 302 300 297 293 286 278 274 270 257 251 247 233 227 232 234 235 241 247 251 255 247 227 213 200 195 196 196 198 203 198 191 187
338 339 339 339 338 337 336 334 332 333 335 335 335 335 335 335 336 337 337 336 335 335 333 331 332 332 332 332 331 331 332 333 334 333 333 334 334 333 329 326 323 321 317 314 312 306 296 290 290 292 299 308 305 298 297 298 297 291 280 273 265 252 247 248 241 232 234 237 239 242 242 231 195 146 134 131 129 130 128 126 131 139 145 148 152
335 337 338 337 335 334 333 331 330 331 333 333 333 334 336 337 338 339 339 338 336 335 334 332 332 333 333 332 332 333 334 334 333 333 333 334 333 333 330 327 327 328 322 318 320 315 294 281 281 285 286 290 295 299 302 301 299 291 273 258 250 236 229 234 240 241 242 239 227 206 179 152 133 122 119 119 121 120 118 119 123 128 135 141 144
334 334 334 334 333 332 331 330 330 331 332 332 332 334 337 339 340 341 341 339 337 336 334 334 334 333 333 333 332 333 334 335 335 334 334 334 335 337 338 336 335 336 333 331 338 344 328 295 282 286 290 287 292 299 303 304 307 300 260 236 220 198 203 217 224 217 206 189 159 137 127 121 116 114 113 116 122 125 123 122 121 123 130 138 145
333 333 332 332 332 333 332 331 330 331 331 331 332 335 338 340 341 342 342 340 339 336 334 333 333 332 332 332 332 332 334 335 336 336 336 335 335 338 342 344 344 344 341 342 350 358 1 357 328 298 297 298 301 303 300 303 316 323 263 237 212 189 199 214 204 161 137 132 124 114 109 110 110 110 112 117 125 130 131 132 132 133 139 157 177